Location: Waco, TX
(31.5480°N, 97.1670°W)
Time: 15:31:09
(UTC-05:00)

ISS - Pass Details

Date: 21 August 2019
Orbit: 410 x 421 km, 51.6° (Epoch: 22 August)

Event Time Altitude Azimuth Distance (km) Brightness Sun altitude
Rises 15:17:29 0° 323° (NW) 2,366 0.1 58.8°
Reaches altitude 10° 15:19:41 10° 332° (NNW) 1,500 -0.8 58.4°
Maximum altitude 15:22:50 36° 41° (NE) 679 -2.6 57.8°
Drops below altitude 10° 15:25:58 10° 110° (ESE) 1,494 -1.1 57.3°
Sets 15:28:10 0° 119° (ESE) 2,354 -0.1 56.8°
